TimeEDT,TemperatureF,Dew PointF,Humidity,Sea Level PressureIn,VisibilityMPH,Wind Direction,Wind SpeedMPH,Gust SpeedMPH,PrecipitationIn,Events,Conditions,WindDirDegrees,DateUTC
12:51 AM,81.0,71.1,72,29.66,10.0,South,11.5,-,N/A,,Overcast,190,2013-06-13 04:51:00
1:51 AM,81.0,71.1,72,29.68,10.0,SW,18.4,29.9,N/A,,Overcast,220,2013-06-13 05:51:00
1:55 AM,78.8,66.2,65,29.72,8.0,WNW,29.9,46.0,0.00,Rain,Light Rain,290,2013-06-13 05:55:00
2:03 AM,69.8,64.4,83,29.71,4.0,NW,15.0,42.6,0.03,Rain-Thunderstorm,Heavy Thunderstorms and Rain,310,2013-06-13 06:03:00
2:43 AM,68.0,66.2,94,29.71,8.0,WNW,6.9,-,0.35,Rain-Thunderstorm,Light Thunderstorms and Rain,300,2013-06-13 06:43:00
2:51 AM,66.9,64.9,93,29.68,8.0,Variable,4.6,-,0.37,Rain-Thunderstorm,Light Thunderstorms and Rain,0,2013-06-13 06:51:00
3:51 AM,66.9,66.0,97,29.63,8.0,Calm,Calm,-,0.14,Rain-Thunderstorm,Light Thunderstorms and Rain,0,2013-06-13 07:51:00
4:29 AM,66.2,66.2,100,29.69,7.0,SSW,5.8,-,0.12,Rain-Thunderstorm,Light Thunderstorms and Rain,210,2013-06-13 08:29:00
4:51 AM,66.9,66.0,97,29.64,5.0,SSW,10.4,-,0.21,Rain-Thunderstorm,Light Thunderstorms and Rain,200,2013-06-13 08:51:00
5:12 AM,66.2,66.2,100,29.58,10.0,SE,6.9,-,0.03,Rain,Light Rain,130,2013-06-13 09:12:00
5:51 AM,66.9,64.9,93,29.59,10.0,SSW,16.1,-,0.04,Rain,Light Rain,200,2013-06-13 09:51:00
6:05 AM,66.2,64.4,94,29.59,10.0,SSW,10.4,-,0.00,,Overcast,200,2013-06-13 10:05:00
6:51 AM,66.9,64.9,93,29.59,10.0,SW,4.6,-,0.00,,Mostly Cloudy,220,2013-06-13 10:51:00
7:51 AM,69.1,66.0,90,29.62,10.0,WSW,3.5,-,N/A,,Overcast,250,2013-06-13 11:51:00
8:20 AM,69.8,66.2,88,29.64,10.0,WNW,9.2,-,N/A,,Overcast,290,2013-06-13 12:20:00
8:51 AM,71.1,66.9,87,29.61,10.0,NW,9.2,-,N/A,,Overcast,320,2013-06-13 12:51:00
9:51 AM,70.0,64.0,81,29.62,10.0,NW,15.0,21.9,N/A,,Overcast,320,2013-06-13 13:51:00
10:51 AM,68.0,64.9,90,29.65,6.0,NNW,9.2,-,0.04,Rain,Light Rain,340,2013-06-13 14:51:00
11:17 AM,68.0,64.4,88,29.68,5.0,NNW,16.1,-,0.04,Rain,Light Rain,340,2013-06-13 15:17:00
11:51 AM,66.9,66.0,97,29.68,10.0,North,13.8,25.3,0.04,,Overcast,350,2013-06-13 15:51:00
12:08 PM,66.2,66.2,100,29.71,8.0,North,17.3,25.3,N/A,,Overcast,350,2013-06-13 16:08:00
12:29 PM,68.0,62.6,83,29.71,9.0,North,13.8,20.7,N/A,,Overcast,360,2013-06-13 16:29:00
12:51 PM,69.1,61.0,75,29.70,10.0,North,16.1,-,N/A,,Overcast,360,2013-06-13 16:51:00
1:13 PM,69.8,60.8,73,29.73,10.0,NNW,18.4,25.3,N/A,,Mostly Cloudy,340,2013-06-13 17:13:00
1:51 PM,72.0,59.0,64,29.73,10.0,North,17.3,28.8,N/A,,Mostly Cloudy,360,2013-06-13 17:51:00
2:51 PM,73.9,55.9,53,29.75,10.0,NNW,20.7,25.3,N/A,,Scattered Clouds,340,2013-06-13 18:51:00
3:51 PM,75.0,55.9,51,29.76,10.0,NNW,19.6,26.5,N/A,,Scattered Clouds,340,2013-06-13 19:51:00
4:51 PM,77.0,55.0,47,29.77,10.0,NNW,16.1,27.6,N/A,,Scattered Clouds,330,2013-06-13 20:51:00
5:51 PM,77.0,55.9,48,29.78,10.0,NNW,15.0,23.0,N/A,,Mostly Cloudy,340,2013-06-13 21:51:00
6:51 PM,77.0,52.0,42,29.78,10.0,NNW,17.3,23.0,N/A,,Partly Cloudy,330,2013-06-13 22:51:00
7:51 PM,75.9,52.0,43,29.80,10.0,NNW,15.0,24.2,N/A,,Scattered Clouds,330,2013-06-13 23:51:00
8:51 PM,75.0,51.1,43,29.82,10.0,NW,9.2,-,N/A,,Mostly Cloudy,320,2013-06-14 00:51:00
9:51 PM,72.0,54.0,53,29.84,10.0,North,5.8,-,N/A,,Partly Cloudy,350,2013-06-14 01:51:00
10:51 PM,70.0,55.0,59,29.86,10.0,North,3.5,-,N/A,,Clear,10,2013-06-14 02:51:00
11:51 PM,68.0,57.0,68,29.88,10.0,North,3.5,-,N/A,,Mostly Cloudy,360,2013-06-14 03:51:00